Location: Foulognes
(49.1413°N, 0.8183°W)
Time: 01:21:37
(UTC+00:00)

SMAP - Pass Details

Date: 21 October 2019
Orbit: 682 x 683 km, 98.1° (Epoch: 13 November)

Event Time Altitude Azimuth Distance (km) Brightness Sun altitude
Rises 17:36:17 0° 173° (S) 3,032 6.4 -6.2°
Reaches altitude 10° 17:38:32 10° 177° (S) 2,121 5.7 -6.6°
Maximum altitude 17:43:08 62° 258° (WSW) 768 3.7 -7.4°
Drops below altitude 10° 17:47:47 10° 340° (NNW) 2,137 5.8 -8.1°
Sets 17:50:03 0° 344° (NNW) 3,057 6.5 -8.5°
